Regional Weather Roundup
Issued by NWS Sioux Falls, SD

Home | Current Version | Previous Version | Text Only | Print | Product List | Glossary On
Versions: 1 2 3 4 5 6 7 8 9 10 11 12 13 14 15 16 17 18 19 20 21 22 23 24 25 26 27 28 29 30 31 32 33 34 35 36 37 38 39 40 41 42 43 44 45 46 47 48 49 50
000
ASUS43 KFSD 082202
RWRFSD

WEATHER ROUNDUP FOR SE SOUTH DAKOTA/SW MINNESOTA/NW IOWA
NATIONAL WEATHER SERVICE SIOUX FALLS SD
400 PM CST MON FEB 08 2016

NOTE: "FAIR" INDICATES FEW OR NO CLOUDS BELOW 12,000 FEET WITH NO
SIGNIFICANT WEATHER AND OR OBSTRUCTIONS TO VISIBILITY.


SDZ038>040-050-052>070-082300-
SOUTHEAST SOUTH DAKOTA

CITY           SKY/WX    TMP DP  RH WIND       PRES   REMARKS
BROOKINGS      FLURRIES  21  13  71 NW28G38   30.06S WCI   3
CHAMBERLAIN    NOT AVBL
HURON          MOSUNNY   33  16  49 N20       30.15S WCI  21
MADISON        FAIR      25  18  74 N23G33    30.08F WCI  10
MITCHELL       CLOUDY    33  17  51 NW22G32   30.16S WCI  21
SIOUX FALLS    PTSUNNY   25  14  63 NW26G32   30.09S WCI   9
WINNER         FAIR      36  17  46 NW24G33   30.22S
YANKTON        SUNNY    N/A N/A N/A NW32G38   30.12S
$$

MNZ071-072-080-081-089-090-097-098-082300-
SOUTHWEST MINNESOTA

CITY           SKY/WX    TMP DP  RH WIND       PRES   REMARKS
FAIRMONT       CLOUDY    18   9  68 NW28      29.98R WCI  -1
JACKSON        CLOUDY    18  10  73 NW35G46   30.02R WCI  -3
LUVERNE        CLOUDY    23  18  80 N18G24    30.09R WCI   9
MARSHALL       FLURRIES  18  11  74 N28G39    30.07R WCI  -1
MONTEVIDEO     PTSUNNY   16  10  79 N25G39    30.11R WCI  -3
PIPESTONE      SUNNY     21  10  63 N15G28    30.05F WCI   8
REDWOOD FALLS  CLOUDY    18   7  62 NW24G39   30.05R WCI   0
TRACY          LGT SNOW  19  13  77 N28G36    30.06S WCI   0
WINDOM         SUNNY     16  10  79 NW36G45   30.02R HAZE    WCI  -6
WORTHINGTON    MOSUNNY  N/A N/A N/A NW25      30.05R
$$

IAZ001>003-012>014-020>022-031-032-NEZ013-014-SDZ071-082300-
NORTHWEST IOWA

CITY           SKY/WX    TMP DP  RH WIND       PRES   REMARKS
ESTHERVILLE    LGT SNOW  15  11  83 NW30G39   30.02R VSB 1   WCI  -5
SIOUX CITY     MOSUNNY   29  18  63 N25G40    30.09R WCI  14
SPENCER        MOSUNNY   18   9  68 NW32G39   30.06R WCI  -2
STORM LAKE     LGT SNOW  19  16  86 NW26G40   30.04R WCI   1
$$

ABBREVIATIONS USED IN REMARKS
   TC - TEMPERATURE IN CELSIUS
  WCI - WIND CHILL INDEX
   HX - HEAT INDEX
  VSB - VISIBILITY




USA.gov is the U.S. government's official web portal to all federal, state and local government web resources and services.